Regional Weather Roundup
Issued by NWS Kansas City/Pleasant Hill, MO

Home | Current Version | Previous Version | Graphics & Text | Print | Product List | Glossary Off
Versions: 1 2 3 4 5 6 7 8 9 10 11 12 13 14 15 16 17 18 19 20 21 22 23 24 25 26 27 28 29 30 31 32 33 34 35 36 37 38 39 40 41 42 43 44 45 46 47 48 49 50

000
ASUS43 KEAX 011410
RWREAX

WEATHER ROUNDUP FOR EASTERN KANSAS AND NORTHWEST MISSOURI
NATIONAL WEATHER SERVICE KANSAS CITY/PLEASANT HILL MO
900 AM CDT TUE SEP 01 2015

KSZ040-057-103>105-MOZ028-029-037-043-011500-
...KANSAS CITY METROPOLITAN AREA...

CITY           SKY/WX    TMP DP  RH WIND       PRES   REMARKS
K.C. INTL      MOSUNNY   78  68  71 S10       30.03S
K.C. DOWNTOWN  MOSUNNY   78  68  71 S10       30.03S
LEES SUMMIT    SUNNY     75  67  76 S7        30.05F
OLATHE - IXD   PTSUNNY   76  69  79 S9        30.05S
OLATHE - OJC   SUNNY     74  69  85 S6        30.04S
LAWRENCE       SUNNY     76  69  79 SE6       30.02F

$$

MOZ001>008-011>017-020>025-030>033-038>040-044>046-053-054-011500-
...NORTHERN AND CENTRAL MISSOURI...

CITY           SKY/WX    TMP DP  RH WIND       PRES   REMARKS
ST. JOSEPH     SUNNY     76  70  82 S9        30.01S
MOSBY          MOSUNNY   73  70  88 CALM      30.04S
WARRENSBURG    SUNNY     73  66  78 S7        30.06S
WHITEMAN AFB   SUNNY     77  67  72 SW12      30.05F
CLINTON        SUNNY     75  70  83 SW6       30.08S
SEDALIA        SUNNY     78  67  68 SW10      30.08S
WARSAW         NOT AVBL
CHILLICOTHE      N/A     76  70  82 S8        30.05S
KIRKSVILLE     SUNNY     76  69  79 SW8       30.07S

$$

MOZ041-047>049-056>058-063>065-088>090-097-011500-
...EASTERN AND SOUTHERN MISSOURI...

CITY           SKY/WX    TMP DP  RH WIND       PRES   REMARKS
ST. LOUIS INTL MOSUNNY   80  69  69 SW9       30.10S
SPIRIT OF STL  SUNNY     78  71  79 SW6       30.08S
COLUMBIA       SUNNY     76  70  82 S7        30.08F
JEFFERSON CITY SUNNY     76  70  82 S5        30.08S
ROLLA          SUNNY     77  69  76 S10       30.10S
OSAGE BEACH    SUNNY     75  68  78 S6        30.10S
SPRINGFIELD    SUNNY     76  67  73 S7        30.10S
BRANSON        SUNNY     75  68  78 CALM      30.12S
JOPLIN         SUNNY     77  68  73 S8        30.08S
WEST PLAINS    SUNNY     74  69  85 CALM      30.15R

$$

IAZ060-094-KSZ022-034>040-054-083-096-NEZ052-066-093-011500-
...KANSAS...SOUTHEAST NEBRASKA AND IOWA...

CITY           SKY/WX    TMP DP  RH WIND       PRES   REMARKS
TOPEKA         MOSUNNY   76  68  76 S6        30.01S
MANHATTAN      SUNNY     77  65  66 SW12      29.98S
EMPORIA        SUNNY     74  66  76 S12       30.02S
CHANUTE        SUNNY     75  69  81 S9        30.05S
WICHITA        MOSUNNY   76  64  66 S14       30.01F
OMAHA          MOSUNNY   74  68  81 S9        29.95S
LINCOLN        MOSUNNY   75  67  76 S8        29.95R
FALLS CITY     SUNNY     76  67  73 S14       29.98F
LAMONI         SUNNY     74  70  87 S12       30.02S
DES MOINES     SUNNY     76  69  79 S13       29.97F

$$




USA.gov is the U.S. government's official web portal to all federal, state and local government web resources and services.